State University, AR

10:40 PM CDT on August 28, 2016 (GMT -0500)
Jonesboro Municipal

Weather History for KJBR - September, 2012

Change the Weather History Date:

Sunday, September 2, 2012

  Actual Average Record
Temperature  
Mean Temperature 83 °F 77 °F  
Max Temperature 91 °F 88 °F 103 °F (1925)
Min Temperature 74 °F 66 °F 50 °F (1949)
Degree Days  
Heating Degree Days 0 0  
Month to date heating degree days 0 0  
Since 1 July heating degree days 0 0  
Cooling Degree Days 18 12  
Month to date cooling degree days 35 24  
Year to date cooling degree days 2074 1570  
Growing Degree Days 33 (Base 50)    
Moisture  
Dew Point 71 °F    
Average Humidity 70    
Maximum Humidity 87    
Minimum Humidity 52    
Precipitation  
Precipitation T in 0.09 in 2.31 in (1952)
Month to date precipitation 0.96 0.17  
Year to date precipitation 20.38 31.28  
Snow  
Snow 0.00 in 0.00 in - ()
Month to date snowfall 0.0 0.0  
Since 1 July snowfall 0.0 0.0  
Since 1 September snowfall 0.0 0.0  
Snow Depth 0.00 in    
Sea Level Pressure  
Sea Level Pressure 29.86 in    
Wind  
Wind Speed 7 mph (West)    
Max Wind Speed 16 mph    
Max Gust Speed 22 mph    
Visibility 10 miles    
Events Rain    
T = Trace of Precipitation, MM = Missing Value Source: NWS Daily Summary

Daily Weather History Graph

Daily Weather History Graph

Search for Another Location

Airport or City:

Trip Planner

Search our weather history database for the weather conditions in past years. The results will help you decide how hot, cold, wet, or windy it might be!

Date:

Astronomy

Sep. 02, 2012 Rise Set
Actual Time 6:35 AM CDT 7:27 PM CDT
Civil Twilight 6:09 AM CDT 7:53 PM CDT
Nautical Twilight 5:38 AM CDT 8:24 PM CDT
Astronomical Twilight 5:06 AM CDT 8:56 PM CDT
Moon 8:22 PM CDT (9/2) 8:37 AM CDT (9/2)
Length of Visible Light 13h 44m
Length of Day
12h 52m
Waning Gibbous, 95% of the Moon is Illuminated
Sep 2
Waning Gibbous
Sep 8
Last Quarter
Sep 15
New
Sep 22
First Quarter
Sep 29
Full

Hourly Weather History & Observations

Time (CDT) Temp. Heat Index Dew Point Humidity Pressure Visibility Wind Dir Wind Speed Gust Speed Precip Events Conditions
12:44 AM 75.2 °F - 71.6 °F 89% 29.89 in 2.5 mi SW 13.8 mph - 0.18 in Rain Rain
12:51 AM 75.2 °F - 71.6 °F 89% 29.89 in 10.0 mi SSW 11.5 mph - 0.18 in Rain Light Rain
12:53 AM 75.0 °F - 72.0 °F 90% 29.88 in 10.0 mi SW 10.4 mph - 0.18 in Rain Light Rain
1:53 AM 75.0 °F - 72.0 °F 90% 29.86 in 10.0 mi WSW 8.1 mph - 0.00 in   Overcast
2:53 AM 75.2 °F - 71.6 °F 89% 29.87 in 10.0 mi SW 8.1 mph - N/A   Overcast
3:53 AM 75.0 °F - 72.0 °F 90% 29.86 in 10.0 mi SSW 8.1 mph - N/A   Clear
4:53 AM 75.0 °F - 72.0 °F 90% 29.85 in 10.0 mi SW 10.4 mph - N/A   Mostly Cloudy
5:53 AM 75.0 °F - 72.0 °F 90% 29.86 in 10.0 mi WSW 9.2 mph - N/A   Mostly Cloudy
6:53 AM 75.0 °F - 72.0 °F 90% 29.87 in 10.0 mi WSW 8.1 mph - N/A   Mostly Cloudy
7:53 AM 75.9 °F - 72.0 °F 87% 29.89 in 10.0 mi West 6.9 mph - N/A   Overcast
8:53 AM 77.0 °F - 70.0 °F 79% 29.88 in 10.0 mi West 10.4 mph - N/A   Clear
9:53 AM 78.1 °F - 69.1 °F 74% 29.90 in 10.0 mi West 10.4 mph - N/A   Overcast
10:15 AM 77.0 °F - 69.8 °F 78% 29.91 in 10.0 mi West 11.5 mph - N/A   Overcast
10:32 AM 78.8 °F - 69.8 °F 74% 29.91 in 10.0 mi Variable 6.9 mph - N/A   Overcast
10:53 AM 80.1 °F 83.6 °F 71.1 °F 74% 29.90 in 10.0 mi West 8.1 mph - N/A   Mostly Cloudy
11:39 AM 82.4 °F 87.2 °F 71.6 °F 70% 29.90 in 10.0 mi West 9.2 mph - N/A   Mostly Cloudy
11:53 AM 82.0 °F 86.7 °F 72.0 °F 71% 29.89 in 10.0 mi West 9.2 mph - N/A   Mostly Cloudy
12:42 PM 84.2 °F 89.6 °F 71.6 °F 66% 29.89 in 10.0 mi WSW 8.1 mph - N/A   Mostly Cloudy
12:53 PM 84.9 °F 90.7 °F 72.0 °F 65% 29.88 in 10.0 mi West 8.1 mph 16.1 mph N/A   Mostly Cloudy
1:53 PM 87.1 °F 93.6 °F 72.0 °F 61% 29.86 in 10.0 mi WSW 15.0 mph - N/A   Overcast
2:53 PM 89.1 °F 96.0 °F 72.0 °F 57% 29.83 in 10.0 mi West 10.4 mph 18.4 mph N/A   Mostly Cloudy
3:53 PM 89.1 °F 96.0 °F 72.0 °F 57% 29.82 in 10.0 mi West 9.2 mph - N/A   Mostly Cloudy
4:53 PM 91.0 °F 98.2 °F 72.0 °F 53% 29.82 in 10.0 mi NW 8.1 mph - N/A   Partly Cloudy
5:53 PM 91.0 °F 98.2 °F 72.0 °F 53% 29.81 in 10.0 mi NNW 6.9 mph - N/A   Clear
6:53 PM 88.0 °F 94.7 °F 72.0 °F 59% 29.81 in 10.0 mi NNW 4.6 mph - N/A   Clear
7:53 PM 84.0 °F 89.6 °F 72.0 °F 67% 29.81 in 10.0 mi North 6.9 mph - N/A   Clear
8:53 PM 82.0 °F 86.3 °F 71.1 °F 69% 29.83 in 10.0 mi North 4.6 mph - N/A   Clear
9:53 PM 79.0 °F - 71.1 °F 77% 29.85 in 10.0 mi NNE 3.5 mph - N/A   Clear
10:53 PM 78.1 °F - 71.1 °F 79% 29.86 in 10.0 mi Calm Calm - N/A   Clear
11:53 PM 75.0 °F - 71.1 °F 87% 29.86 in 10.0 mi Calm Calm - N/A   Clear